| time (UTC) | temp F | wind direction | speed MPH | gust MPH | rain 1hr in | rain 24hr in | rain mn in | humidity % | barometer mb |
| 20260508153034 | 49 | 272 | 4.0 | 9.0 | 0.00 | 0.14 | 0.01 | 55 | 1003.2 |
| 20260508151534 | 48 | 322 | 3.0 | 9.0 | 0.00 | 0.14 | 0.01 | 57 | 1003.4 |
| 20260508150036 | 48 | 244 | 1.0 | 9.0 | 0.00 | 0.14 | 0.01 | 63 | 1003.3 |
| 20260508144546 | 47 | 360 | 4.0 | 14.0 | 0.00 | 0.14 | 0.01 | 63 | 1003.3 |
| 20260508143034 | 49 | 274 | 6.0 | 12.0 | 0.00 | 0.14 | 0.01 | 59 | 1003.3 |
| 20260508141531 | 49 | 302 | 3.0 | 7.0 | 0.00 | 0.14 | 0.01 | 52 | 1003.2 |
| 20260508140030 | 49 | 246 | 5.0 | 13.0 | 0.00 | 0.14 | 0.01 | 52 | 1003.3 |
| 20260508134536 | 49 | 345 | 6.0 | 13.0 | 0.00 | 0.14 | 0.01 | 57 | 1003.2 |
| 20260508133031 | 48 | 294 | 3.0 | 11.0 | 0.00 | 0.14 | 0.01 | 63 | 1003.3 |
| 20260508131521 | 47 | 281 | 5.0 | 10.0 | 0.00 | 0.14 | 0.01 | 64 | 1003.2 |
| 20260508130017 | 45 | 299 | 5.0 | 11.0 | 0.00 | 0.14 | 0.01 | 71 | 1003.1 |
| 20260508124514 | 44 | 259 | 4.0 | 10.0 | 0.00 | 0.14 | 0.01 | 73 | 1003.2 |
| 20260508123010 | 43 | 311 | 4.0 | 9.0 | 0.00 | 0.14 | 0.01 | 78 | 1003.1 |
| 20260508121508 | 43 | 275 | 2.0 | 8.0 | 0.00 | 0.14 | 0.01 | 81 | 1003.0 |
| 20260508120006 | 42 | 262 | 2.0 | 7.0 | 0.00 | 0.14 | 0.01 | 82 | 1003.0 |
| 20260508114504 | 42 | 276 | 0.0 | 0.0 | 0.01 | 0.14 | 0.01 | 83 | 1002.8 |
| 20260508113002 | 41 | 234 | 0.0 | 0.0 | 0.01 | 0.14 | 0.01 | 83 | 1002.7 |
| 20260508111608 | 41 | 281 | 0.0 | 0.0 | 0.01 | 0.14 | 0.01 | 83 | 1002.7 |
| 20260508110100 | 41 | 303 | 0.0 | 0.0 | 0.01 | 0.14 | 0.01 | 83 | 1002.5 |
| 20260508104556 | 40 | 303 | 0.0 | 0.0 | 0.00 | 0.13 | 0.00 | 83 | 1002.3 |
| 20260508103100 | 40 | 303 | 0.0 | 0.0 | 0.00 | 0.13 | 0.00 | 82 | 1002.2 |
| 20260508101600 | 40 | 303 | 0.0 | 0.0 | 0.00 | 0.13 | 0.00 | 82 | 1002.1 |
| 20260508100052 | 40 | 303 | 0.0 | 0.0 | 0.00 | 0.16 | 0.00 | 82 | 1002.0 |
| 20260508094648 | 40 | 275 | 0.0 | 0.0 | 0.00 | 0.16 | 0.00 | 82 | 1001.8 |
| 20260508093047 | 39 | 254 | 0.0 | 0.0 | 0.00 | 0.16 | 0.00 | 82 | 1001.6 |
| 20260508091554 | 39 | 249 | 0.0 | 0.0 | 0.00 | 0.16 | 0.00 | 82 | 1001.5 |
| 20260508084546 | 39 | 248 | 0.0 | 0.0 | 0.00 | 0.18 | 0.00 | 82 | 1001.3 |
| 20260508083045 | 39 | 248 | 0.0 | 0.0 | 0.00 | 0.18 | 0.00 | 82 | 1001.3 |
| 20260508081545 | 39 | 248 | 0.0 | 0.0 | 0.00 | 0.18 | 0.00 | 82 | 1001.3 |
| 20260508080044 | 39 | 266 | 0.0 | 0.0 | 0.00 | 0.19 | 0.00 | 82 | 1001.2 |
| 20260508074545 | 39 | 266 | 0.0 | 0.0 | 0.00 | 0.19 | 0.00 | 82 | 1001.1 |
| 20260508073046 | 38 | 266 | 0.0 | 0.0 | 0.00 | 0.19 | 0.00 | 81 | 1001.1 |
| 20260508071552 | 38 | 274 | 0.0 | 0.0 | 0.00 | 0.19 | 0.00 | 81 | 1001.0 |
| 20260508070141 | 38 | 269 | 0.0 | 0.0 | 0.00 | 0.28 | 0.00 | 81 | 1001.1 |
| 20260508064540 | 38 | 256 | 0.0 | 0.0 | 0.00 | 0.28 | 0.00 | 81 | 1001.1 |
| 20260508063038 | 38 | 250 | 0.0 | 0.0 | 0.00 | 0.28 | 0.00 | 80 | 1001.2 |
| 20260508061538 | 38 | 247 | 0.0 | 0.0 | 0.00 | 0.28 | 0.00 | 80 | 1001.2 |
| 20260508060036 | 38 | 213 | 0.0 | 0.0 | 0.00 | 0.44 | 0.00 | 79 | 1001.3 |
| 20260508054534 | 38 | 202 | 0.0 | 0.0 | 0.00 | 0.44 | 0.00 | 79 | 1001.4 |
| 20260508053056 | 38 | 202 | 0.0 | 0.0 | 0.00 | 0.44 | 0.00 | 78 | 1001.5 |
| 20260508051530 | 39 | 213 | 0.0 | 0.0 | 0.00 | 0.44 | 0.00 | 78 | 1001.6 |
| 20260508050029 | 39 | 224 | 0.0 | 0.0 | 0.00 | 0.56 | 0.00 | 77 | 1001.7 |
| 20260508044529 | 40 | 177 | 0.0 | 0.0 | 0.00 | 0.56 | 0.00 | 76 | 1001.7 |
| 20260508043026 | 39 | 193 | 0.0 | 0.0 | 0.00 | 0.56 | 0.00 | 77 | 1001.6 |
| 20260508041542 | 40 | 188 | 0.0 | 0.0 | 0.00 | 0.56 | 0.00 | 77 | 1001.7 |
| 20260508040027 | 40 | 272 | 0.0 | 0.0 | 0.00 | 0.68 | 0.56 | 77 | 1001.6 |
| 20260508034529 | 40 | 229 | 0.0 | 0.0 | 0.00 | 0.68 | 0.56 | 77 | 1001.6 |
| 20260508033023 | 40 | 229 | 0.0 | 0.0 | 0.00 | 0.68 | 0.56 | 76 | 1001.7 |
| 20260508031519 | 41 | 227 | 0.0 | 0.0 | 0.00 | 0.68 | 0.56 | 75 | 1001.8 |
| 20260508030024 | 41 | 227 | 0.0 | 0.0 | 0.00 | 0.72 | 0.56 | 76 | 1001.8 |
| 20260508024519 | 41 | 227 | 0.0 | 0.0 | 0.00 | 0.72 | 0.56 | 76 | 1001.9 |
| 20260508023014 | 42 | 272 | 0.0 | 0.0 | 0.00 | 0.72 | 0.56 | 75 | 1002.0 |
| 20260508021615 | 42 | 238 | 0.0 | 0.0 | 0.00 | 0.72 | 0.56 | 76 | 1002.0 |
| 20260508020020 | 42 | 245 | 0.0 | 0.0 | 0.00 | 0.76 | 0.56 | 77 | 1002.1 |
| 20260508014512 | 42 | 245 | 0.0 | 0.0 | 0.00 | 0.76 | 0.56 | 76 | 1002.1 |
| 20260508013009 | 43 | 245 | 0.0 | 0.0 | 0.00 | 0.76 | 0.56 | 74 | 1002.1 |
| 20260508011513 | 43 | 243 | 0.0 | 0.0 | 0.00 | 0.76 | 0.56 | 74 | 1002.0 |
| 20260508010009 | 44 | 244 | 0.0 | 0.0 | 0.00 | 0.83 | 0.56 | 73 | 1001.9 |
| 20260508004510 | 44 | 246 | 0.0 | 0.0 | 0.00 | 0.83 | 0.56 | 72 | 1001.9 |
| 20260508003007 | 45 | 246 | 0.0 | 4.0 | 0.00 | 0.83 | 0.56 | 71 | 1001.7 |
| 20260508001507 | 46 | 268 | 2.0 | 8.0 | 0.00 | 0.83 | 0.56 | 70 | 1001.5 |
| 20260508000006 | 47 | 276 | 1.0 | 9.0 | 0.00 | 0.94 | 0.56 | 71 | 1001.4 |
| 20260507234507 | 47 | 249 | 0.0 | 5.0 | 0.00 | 0.94 | 0.56 | 73 | 1001.3 |
| 20260507233012 | 47 | 275 | 0.0 | 6.0 | 0.00 | 0.94 | 0.56 | 73 | 1001.2 |
| 20260507231504 | 47 | 282 | 0.0 | 7.0 | 0.00 | 0.94 | 0.56 | 74 | 1001.1 |
| 20260507230005 | 48 | 239 | 0.0 | 6.0 | 0.00 | 1.01 | 0.56 | 79 | 1000.9 |
| 20260507224505 | 48 | 229 | 0.0 | 9.0 | 0.00 | 1.01 | 0.56 | 81 | 1000.9 |
| 20260507223004 | 48 | 221 | 0.0 | 6.0 | 0.02 | 1.01 | 0.56 | 81 | 1000.9 |
| 20260507221503 | 47 | 186 | 0.0 | 8.0 | 0.08 | 1.01 | 0.56 | 80 | 1000.7 |
| 20260507220002 | 47 | 172 | 3.0 | 10.0 | 0.12 | 1.11 | 0.56 | 80 | 1000.6 |
| 20260507214502 | 47 | 178 | 3.0 | 9.0 | 0.12 | 1.11 | 0.56 | 79 | 1000.4 |
| 20260507213003 | 48 | 173 | 2.0 | 9.0 | 0.11 | 1.09 | 0.54 | 78 | 1000.4 |
| 20260507211601 | 50 | 26 | 0.0 | 0.0 | 0.05 | 1.03 | 0.48 | 74 | 999.8 |
| 20260507210105 | 52 | 346 | 0.0 | 0.0 | 0.01 | 1.09 | 0.44 | 68 | 1000.0 |
| 20260507204600 | 52 | 178 | 0.0 | 4.0 | 0.01 | 1.09 | 0.44 | 68 | 999.6 |
| 20260507203102 | 52 | 178 | 0.0 | 6.0 | 0.00 | 1.08 | 0.43 | 68 | 999.5 |
| 20260507200058 | 54 | 207 | 0.0 | 3.0 | 0.00 | 1.21 | 0.43 | 66 | 999.5 |
| 20260507194619 | 51 | 189 | 0.0 | 6.0 | 0.00 | 1.21 | 0.43 | 72 | 999.7 |
| 20260507193057 | 49 | 185 | 1.0 | 7.0 | 0.00 | 1.21 | 0.43 | 74 | 1000.0 |
| 20260507191556 | 51 | 190 | 3.0 | 10.0 | 0.00 | 1.21 | 0.43 | 67 | 1000.0 |
| 20260507190057 | 53 | 186 | 1.0 | 6.0 | 0.00 | 1.26 | 0.43 | 56 | 999.7 |
| 20260507184554 | 53 | 181 | 0.0 | 3.0 | 0.00 | 1.26 | 0.43 | 56 | 999.6 |
| 20260507183055 | 54 | 211 | 0.0 | 5.0 | 0.00 | 1.26 | 0.43 | 51 | 999.9 |
| 20260507181557 | 56 | 246 | 1.0 | 8.0 | 0.00 | 1.26 | 0.43 | 51 | 999.9 |
| 20260507180051 | 57 | 244 | 0.0 | 9.0 | 0.00 | 1.32 | 0.43 | 51 | 1000.0 |
| 20260507174557 | 56 | 186 | 0.0 | 7.0 | 0.00 | 1.32 | 0.43 | 56 | 1000.0 |
| 20260507173119 | 55 | 190 | 1.0 | 8.0 | 0.00 | 1.32 | 0.43 | 55 | 1000.1 |
| 20260507171554 | 56 | 312 | 1.0 | 7.0 | 0.00 | 1.32 | 0.43 | 52 | 1000.0 |
| 20260507170105 | 58 | 240 | 0.0 | 0.0 | 0.00 | 1.33 | 0.43 | 52 | 1000.1 |
| 20260507164553 | 56 | 253 | 0.0 | 0.0 | 0.00 | 1.33 | 0.43 | 50 | 1000.3 |
| 20260507163042 | 56 | 292 | 0.0 | 0.0 | 0.00 | 1.33 | 0.43 | 57 | 1000.5 |
| 20260507161557 | 55 | 239 | 0.0 | 0.0 | 0.00 | 1.33 | 0.43 | 60 | 1000.6 |
| 20260507160041 | 54 | 236 | 0.0 | 0.0 | 0.00 | 1.37 | 0.43 | 68 | 1001.0 |
| 20260507154541 | 53 | 193 | 0.0 | 0.0 | 0.00 | 1.37 | 0.43 | 72 | 1001.0 |